STARLINK-33959, 63817

Orbit data source: Space-Track

STARLINK-33959, 63817 is a payload satellite owned by SpaceX/Seattle (US) in LEO that was launched on Sun, 04 May 2025 UTC via an FALCON 9 launch vehicle from the Air Force Eastern Test Range (AFETR). Payload-class satellites include a variety of spacecraft equipped with specific instruments for various scientific and technological missions. These include communications satellites like Starlink; space stations such as the ISS; scientific satellites like the Hubble; Earth observation satellites from companies like Planet Labs, Umbra, and HawkEye 360; GPS; miniature CubeSats for education and research; and military/defense satellites.

Loading next visibility...
Identifier
63817, 2025-092P
Orbit
LEO
Country
Flag of USUS
Related business
Manufacturer
SpaceX/Seattle
Mission
Operational Commercial Communications
Bus & Motor
STARLINK V2MO, Unknown motor
Mass
575 kg wet, ~530 kg dry
Launch date (UTC)
2025-05-04 (4 months ago)
Launch vehicle
FALCON 9
Launch site
Air Force Eastern Test Range (AFETR)
Object type
Payload
Rocket body
Debris
Shape & HBR
Box + 1 Pan, 14.5 m
Radar Cross Section
41.120 m², Large (>1 m²)

Expand to show TLE details & history
Last TLE update: 20 hours ago

TLE from 20 hours ago
0 STARLINK-33959
1 63817U 25092P   25259.91905807  .00036297  00000-0  13221-2 0  9993
2 63817  43.0024  73.4778 0001725 260.2894  99.7763 15.27577692 22097
Epoch: 2025-09-16T22:03Z
TLE epoch observation values (Epoch: 2025-09-16T22:03:26.617Z)
Latitude
Longitude
106.51444°
Altitude
483.033 km
Speed
7.626 km/s
True Right ascension
04h 53m 54s
True Declination
0° 00' 00"
Sunlit
Object was in daylight at epoch
Visualization orbit readout
Latitude
Unknown
Longitude
Unknown
Altitude
Unknown
Speed
Unknown
Apparent Right ascension
Unknown
Apparent Declination
Unknown
Sunlit
N/A
Visualization observer readout
Local Sidereal Time
11:16:39
Azimuth
Unknown
Elevation
Unknown
Doppler factor
Unknown
Orbital elements
Apogee altitude
486.185 km
Perigee altitude
483.817 km
Semi-major axis
6,863.138 km
Eccentricity
0.00017
Inclination
43.0024°
RAAN
73.4778°
Arg. of periapsis
260.2894°
True anomaly
99.79578°
Mean anomaly
99.7763°
Eccentric anomaly
99.78604°
Mean motion
3.81732 °/min
Orbital period
94.31 mins
BSTAR
0.0013221
Loading maneuver chart data...
Computing Atmospheric mass density...
Loading historical data...
Loading historical data...
Loading historical data...
Loading historical data...
Loading historical data...
Loading historical data...
Loading historical data...

Documentation

Showing up to 5 results
|